Flag for U.S.A. Weather past 2 weeks in Kennebunk, Maine, U.S.A.

Now
46 °F

Passing clouds.


Feels Like: 44 °F
Forecast: 45 / 55 °F
Wind: 6 mph from Southwest

Location: Sanford Municipal

Current Time: Oct 20, 2014 at 10:53:19 PM

Latest Report: Oct 20, 2014 at 10:35 PM


Visibility: 10 mi

Pressure: 29.99 "Hg

Humidity: 62%

Dew point: 34 °F

Location of KennebunkLocation

Historic Weather in Kennebunk — Graph

°F

Kennebunk temperature yesterday

Maximum temperature yesterday: 54 °F (at 1:35 PM)
Minimum temperature yesterday: 43 °F (at 9:35 PM)
Average temperature yesterday: 48 °F

Past Weeks' High & Low Weather Summary

 TemperatureHumidityPressure
High77 °F (Oct 15, 1:35 PM)94% (Oct 16, 3:35 AM)30.35 "Hg (Oct 16, 3:35 AM)
Low28 °F (Oct 12, 7:15 AM)30% (Oct 9, 1:55 PM)29.48 "Hg (Oct 18, 3:35 PM)
Average54 °F69%29.97 "Hg
* Reported Oct 5 9:15 PM — Oct 20 9:35 PM, Kennebunk, Weather by CustomWeather, © 2014

Note: Actual official high and low records may vary slightly from our data, if they occured in-between our weather recording intervals... More about our weather records

Advertising

Kennebunk weather history for previous 24 hours

 ConditionsComfort  
Time TempWeatherWind HumidityBarometerVisibility
9:35 PM
Oct 20
43 °FPassing clouds.5 mph71%29.99 "Hg10 mi
9:15 PM43 °FPassing clouds.3 mph76%29.99 "Hg10 mi
8:55 PM43 °FPassing clouds.No wind71%29.98 "Hg10 mi
8:35 PM43 °FMostly cloudy.3 mph71%29.98 "Hg10 mi
8:15 PM43 °FOvercast.No wind76%29.97 "Hg10 mi
7:55 PM41 °FPassing clouds.5 mph76%29.97 "Hg10 mi
7:35 PM41 °FPassing clouds.No wind76%29.97 "Hg10 mi
7:15 PM43 °FOvercast.No wind71%29.97 "Hg10 mi
6:55 PM41 °FPassing clouds.No wind76%29.97 "Hg10 mi
6:35 PM41 °FScattered clouds.3 mph66%29.97 "Hg10 mi
6:15 PM45 °FSunny.No wind61%29.97 "Hg10 mi
5:55 PM48 °FSunny.No wind46%29.96 "Hg10 mi
5:35 PM52 °FSunny.3 mph41%29.96 "Hg10 mi
5:15 PM54 °FSunny.7 mph38%29.95 "Hg10 mi
4:55 PM54 °FSunny.9 mph38%29.95 "Hg10 mi
4:35 PM54 °FSunny.12 mph38%29.95 "Hg10 mi
4:15 PM54 °FSunny.8 mph38%29.94 "Hg10 mi
3:55 PM54 °FSunny.13 mph35%29.94 "Hg10 mi
3:35 PM54 °FSunny.10 mph35%29.94 "Hg10 mi
3:15 PM54 °FSunny.9 mph35%29.94 "Hg10 mi
2:55 PM54 °FScattered clouds.13 mph38%29.94 "Hg10 mi
2:35 PM54 °FPassing clouds.9 mph38%29.94 "Hg10 mi
2:15 PM54 °FSunny.9 mph35%29.94 "Hg10 mi
1:55 PM52 °FSunny.15 mph38%29.95 "Hg10 mi
1:35 PM52 °FPassing clouds.13 mph38%29.95 "Hg10 mi
1:15 PM50 °FOvercast.10 mph40%29.96 "Hg10 mi
12:55 PM50 °FPartly sunny.10 mph37%29.97 "Hg10 mi
12:35 PM48 °FSunny.10 mph40%29.98 "Hg10 mi
12:15 PM48 °FSunny.13 mph40%29.98 "Hg10 mi
11:55 AM48 °FSunny.14 mph37%29.99 "Hg10 mi
11:35 AM48 °FSunny.10 mph37%29.99 "Hg10 mi
11:15 AM46 °FSunny.15 mph43%30.00 "Hg10 mi
10:55 AM46 °FSunny.12 mph40%29.99 "Hg10 mi
10:35 AM45 °FPassing clouds.9 mph49%30.00 "Hg10 mi
10:15 AM45 °FPassing clouds.13 mph46%30.00 "Hg10 mi
9:55 AM45 °FSunny.15 mph46%30.00 "Hg10 mi
9:35 AM43 °FSunny.9 mph53%30.00 "Hg10 mi
9:15 AM43 °FSunny.8 mph49%30.00 "Hg10 mi
8:55 AM43 °FSunny.9 mph49%30.00 "Hg10 mi
8:35 AM41 °FSunny.7 mph53%30.00 "Hg10 mi
7:55 AM39 °FClear.5 mph56%29.99 "Hg10 mi
7:35 AM37 °FClear.6 mph60%29.98 "Hg10 mi
7:15 AM36 °FClear.6 mph65%29.97 "Hg10 mi
6:55 AM34 °FClear.6 mph65%29.97 "Hg10 mi
6:35 AM36 °FClear.5 mph56%29.97 "Hg10 mi
6:15 AM36 °FClear.5 mph65%29.96 "Hg10 mi
5:55 AM36 °FClear.5 mph65%29.96 "Hg10 mi
5:35 AM36 °FClear.3 mph60%29.95 "Hg10 mi
5:15 AM36 °FClear.3 mph60%29.95 "Hg10 mi
4:55 AM36 °FClear.No wind60%29.95 "Hg10 mi
4:35 AMN/A5 mphN/A29.95 "Hg10 mi
4:15 AM36 °FClear.7 mph65%29.95 "Hg10 mi
3:55 AM36 °FClear.6 mph60%29.95 "Hg10 mi
3:35 AM37 °FClear.9 mph60%29.94 "Hg10 mi
3:15 AM37 °FClear.10 mph56%29.94 "Hg10 mi
2:55 AM37 °FPassing clouds.7 mph60%29.94 "Hg10 mi
2:35 AM37 °FPassing clouds.7 mph60%29.94 "Hg10 mi
2:15 AM37 °FPassing clouds.8 mph56%29.94 "Hg10 mi
1:55 AM39 °FPassing clouds.6 mph56%29.93 "Hg10 mi
11:15 PM
Oct 19
43 °FOvercast.7 mph42%29.91 "Hg10 mi
10:55 PM43 °FOvercast.8 mph42%29.90 "Hg10 mi
10:35 PM43 °FOvercast.7 mph42%29.90 "Hg10 mi
10:15 PM43 °FOvercast.7 mph42%29.90 "Hg10 mi
Weather by CustomWeather, © 2014

See weather overviewHow to use our weather pages